VE1DX Weather Reports


Display with metric or nautical units.
time (UTC)temp
F
wind
direction
speed
MPH
gust
MPH
rain 1hr
in
rain 24hr
in
rain mn
in
humidity
%
barometer
mb
20260503211017 41 0 9.0 18.0 0.08 0.50 0.50 94 984.9
20260503210517 41 0 6.0 13.0 0.09 0.50 0.50 94 985.0
20260503210017 41 23 7.0 17.0 0.08 0.49 0.49 94 985.1
20260503205517 41 45 4.0 14.0 0.08 0.49 0.49 94 985.4
20260503205017 41 45 7.0 16.0 0.08 0.48 0.48 94 985.5
20260503204517 41 68 6.0 15.0 0.08 0.48 0.48 94 986.0
20260503204017 41 45 7.0 13.0 0.08 0.47 0.47 94 986.2
20260503203517 41 45 5.0 17.0 0.07 0.46 0.46 94 986.5
20260503203017 41 45 7.0 14.0 0.06 0.45 0.45 94 986.8
20260503202517 41 23 8.0 17.0 0.06 0.44 0.44 94 986.8
20260503202017 41 45 7.0 15.0 0.06 0.43 0.43 94 987.3
20260503201516 41 23 5.0 12.0 0.05 0.42 0.43 94 987.7
20260503201017 41 45 6.0 13.0 0.05 0.42 0.42 94 988.1
20260503200517 41 23 6.0 15.0 0.05 0.41 0.41 94 988.3
20260503200016 41 23 6.0 13.0 0.05 0.41 0.41 94 988.7
20260503195517 41 45 6.0 15.0 0.06 0.41 0.41 93 989.1
20260503195017 41 45 5.0 16.0 0.06 0.40 0.40 93 989.4
20260503194517 41 45 6.0 17.0 0.06 0.40 0.40 93 989.6
20260503194017 41 23 7.0 18.0 0.07 0.39 0.39 93 990.0
20260503193518 41 23 6.0 18.0 0.09 0.39 0.39 93 990.4
20260503193017 41 45 6.0 16.0 0.09 0.39 0.39 93 990.7
20260503192517 41 23 4.0 14.0 0.11 0.39 0.39 93 991.1
20260503192017 41 45 6.0 15.0 0.12 0.38 0.38 93 991.5
20260503191517 41 68 4.0 12.0 0.13 0.37 0.37 93 991.7
20260503191017 41 45 4.0 11.0 0.16 0.37 0.37 93 992.1
20260503190517 41 45 3.0 11.0 0.16 0.36 0.36 93 992.5
20260503190017 41 45 2.0 16.0 0.17 0.36 0.36 93 992.6
20260503185517 41 68 5.0 16.0 0.17 0.35 0.35 93 993.0
20260503185017 41 45 4.0 10.0 0.17 0.35 0.35 93 993.2
20260503184517 41 45 4.0 12.0 0.17 0.34 0.34 93 993.4
20260503184017 41 23 5.0 15.0 0.17 0.32 0.32 93 993.8
20260503183517 42 45 4.0 9.0 0.16 0.31 0.31 93 994.2
20260503183017 42 68 3.0 11.0 0.16 0.29 0.29 93 994.5
20260503182517 42 68 4.0 13.0 0.15 0.28 0.28 93 994.7
20260503182017 42 45 3.0 8.0 0.14 0.26 0.26 93 994.9
20260503181517 42 45 4.0 13.0 0.13 0.24 0.24 93 995.3
20260503181016 42 45 4.0 13.0 0.13 0.21 0.21 93 995.6
20260503180517 42 68 3.0 8.0 0.13 0.20 0.20 92 995.8
20260503180017 42 90 4.0 12.0 0.12 0.19 0.19 92 996.0
20260503175517 42 45 4.0 10.0 0.12 0.19 0.19 92 996.3
20260503175016 43 0 2.0 8.0 0.11 0.18 0.18 92 996.4
20260503174517 43 0 4.0 11.0 0.09 0.17 0.17 91 996.8
20260503174017 43 113 3.0 11.0 0.09 0.16 0.16 92 997.4
20260503173517 43 68 4.0 12.0 0.08 0.15 0.15 92 997.7
20260503173017 43 113 4.0 11.0 0.06 0.13 0.13 91 997.7
20260503172517 43 45 3.0 8.0 0.06 0.13 0.13 91 998.2
20260503172017 43 45 3.0 6.0 0.05 0.12 0.12 91 998.4
20260503171516 44 23 2.0 5.0 0.03 0.10 0.10 91 998.6
20260503171017 44 45 3.0 6.0 0.01 0.08 0.09 91 998.5
20260503170517 43 45 2.0 10.0 0.02 0.08 0.08 91 999.1
20260503150517 44 23 1.0 7.0 0.01 0.01 0.01 85 1005.1
20260503131017 46 0.0 1.0 0.00 0.00 0.00 74 1009.2
20260503130517 46 90 1.0 4.0 0.00 0.00 0.00 74 1009.2
20260503110517 43 0.0 2.0 0.00 0.00 0.00 82 1010.5
20260503081517 41 0.0 1.0 0.00 0.00 0.00 85 1012.7
20260503081017 41 0.0 1.0 0.00 0.00 0.00 85 1012.7
20260503080517 41 0.0 1.0 0.00 0.00 0.00 85 1012.6
20260503072517 41 0.0 0.0 0.00 0.00 0.00 86 1012.8
20260503072016 41 0.0 0.0 0.00 0.00 0.00 86 1012.8
20260503071517 41 0.0 0.0 0.00 0.00 0.00 86 1012.8
20260503071017 41 0.0 0.0 0.00 0.00 0.00 86 1012.8
20260503070517 41 0.0 0.0 0.00 0.00 0.00 86 1012.9
20260503055017 41 0.0 0.0 0.00 0.01 0.00 86 1013.5
20260503054517 41 0.0 0.0 0.00 0.01 0.00 87 1013.5
20260503054017 41 0.0 0.0 0.00 0.01 0.00 87 1013.6
20260503053516 42 0.0 0.0 0.00 0.01 0.00 87 1013.8
20260503053017 41 0.0 0.0 0.00 0.01 0.00 87 1013.8
20260503052517 42 0.0 0.0 0.00 0.01 0.00 87 1014.0
20260503052016 41 0.0 0.0 0.00 0.01 0.00 86 1014.0
20260503051517 41 0.0 0.0 0.00 0.01 0.00 86 1014.2
20260503051017 41 0.0 0.0 0.00 0.01 0.00 85 1014.2
20260503050516 41 0.0 0.0 0.00 0.01 0.00 86 1014.3
20260503050016 42 0.0 0.0 0.00 0.01 0.00 86 1014.3
20260503045517 42 0.0 0.0 0.00 0.01 0.00 86 1014.4
20260503045017 42 0.0 0.0 0.00 0.01 0.00 86 1014.4
20260503044517 42 0.0 0.0 0.00 0.01 0.00 86 1014.5
20260503044017 42 0.0 1.0 0.00 0.01 0.00 85 1014.5
20260503043517 42 0.0 0.0 0.00 0.01 0.00 85 1014.7
20260503043017 42 0.0 1.0 0.00 0.01 0.00 84 1014.8
20260503042516 42 23 1.0 2.0 0.00 0.01 0.00 84 1014.9
20260503042016 42 0.0 1.0 0.00 0.01 0.00 83 1015.0
20260503041517 41 0.0 0.0 0.00 0.01 0.00 81 1014.8
20260503041017 41 0.0 0.0 0.00 0.01 0.00 82 1014.9
20260503040517 41 0.0 0.0 0.00 0.01 0.00 83 1014.9
20260503040017 42 0.0 0.0 0.00 0.01 0.00 83 1015.1
20260503035516 42 0.0 0.0 0.00 0.01 0.00 82 1015.2
20260503035016 42 0.0 0.0 0.00 0.01 0.00 82 1015.2
20260503034516 42 0.0 0.0 0.00 0.01 0.00 82 1015.3
20260503034017 41 0.0 0.0 0.00 0.01 0.00 82 1015.4
20260503033517 41 0.0 0.0 0.00 0.01 0.00 81 1015.3
20260503033017 41 0.0 0.0 0.00 0.01 0.00 80 1015.4
20260503032516 41 0.0 0.0 0.00 0.01 0.00 79 1015.4
20260503032016 41 0.0 0.0 0.00 0.01 0.00 80 1015.4
20260503031516 41 0.0 0.0 0.00 0.01 0.00 79 1015.5
20260503031017 41 0.0 0.0 0.00 0.01 0.00 79 1015.5
20260503030517 41 0.0 0.0 0.00 0.01 0.00 79 1015.4
20260503030016 41 0.0 0.0 0.00 0.01 0.00 78 1015.4
20260503025517 41 0.0 0.0 0.00 0.01 0.01 77 1015.3
20260503025017 42 0.0 0.0 0.00 0.01 0.01 77 1015.3
20260503024517 42 0.0 0.0 0.00 0.01 0.01 76 1015.3
20260503024017 42 0.0 0.0 0.00 0.01 0.01 76 1015.3
20260503023517 42 0.0 0.0 0.00 0.01 0.01 76 1015.4
20260503023017 43 0.0 1.0 0.00 0.01 0.01 76 1015.4
20260503022517 43 0.0 1.0 0.00 0.01 0.01 74 1015.4
20260503022017 43 0.0 1.0 0.00 0.01 0.01 75 1015.3
20260503021517 43 0.0 0.0 0.00 0.01 0.01 75 1015.4
20260503021017 44 0.0 1.0 0.00 0.01 0.01 74 1015.4
20260503020517 44 0.0 0.0 0.00 0.01 0.01 69 1015.4
20260503020017 44 0.0 0.0 0.00 0.01 0.01 69 1015.4
20260503015517 44 0.0 0.0 0.00 0.01 0.01 70 1015.5
20260503015017 45 0.0 1.0 0.00 0.01 0.01 69 1015.5
20260503014517 45 113 1.0 2.0 0.00 0.01 0.01 69 1015.5
20260503014017 45 0.0 2.0 0.00 0.01 0.01 68 1015.6
20260503013517 46 0.0 1.0 0.00 0.01 0.01 68 1015.6
20260503013017 46 0.0 1.0 0.00 0.01 0.01 65 1015.7
20260503012517 46 0.0 1.0 0.00 0.01 0.01 64 1015.6
20260503012017 47 0.0 0.0 0.00 0.01 0.01 62 1015.7
20260503011517 47 0.0 0.0 0.00 0.01 0.01 60 1015.6
20260503011017 47 0.0 1.0 0.00 0.01 0.01 61 1015.6
20260503010517 48 135 1.0 3.0 0.00 0.01 0.01 59 1015.6
20260503010017 48 135 1.0 3.0 0.00 0.01 0.01 59 1015.5
20260503005518 49 0.0 1.0 0.00 0.01 0.01 57 1015.5
20260503005018 49 0.0 1.0 0.00 0.01 0.01 54 1015.4
20260503004517 49 0.0 1.0 0.00 0.01 0.01 52 1015.3
20260503004017 50 0.0 4.0 0.00 0.01 0.01 51 1015.3
20260503003517 50 158 1.0 4.0 0.00 0.01 0.01 51 1015.2
20260503003017 50 0.0 3.0 0.00 0.01 0.01 51 1015.2
20260503002517 50 0.0 3.0 0.00 0.01 0.01 50 1015.2
20260503002017 50 0.0 3.0 0.00 0.01 0.01 51 1015.2
20260503001517 50 0.0 1.0 0.00 0.01 0.01 52 1015.2
20260503001017 51 0.0 2.0 0.00 0.01 0.01 52 1015.1
20260503000517 51 0.0 1.0 0.00 0.01 0.01 52 1015.1
20260503000017 51 0.0 1.0 0.00 0.01 0.01 52 1015.0
20260502235517 51 0.0 2.0 0.00 0.01 0.01 50 1015.0
20260502235017 51 0.0 3.0 0.00 0.01 0.01 50 1015.0
20260502234517 52 0.0 4.0 0.00 0.01 0.01 50 1015.0
20260502234017 52 0.0 3.0 0.00 0.01 0.01 49 1014.9
20260502233517 52 0.0 1.0 0.00 0.01 0.01 49 1014.9
20260502233017 52 0.0 2.0 0.00 0.01 0.01 48 1014.8
20260502232517 53 225 1.0 3.0 0.00 0.01 0.01 48 1014.8
20260502232017 53 203 1.0 3.0 0.00 0.01 0.01 47 1014.8
20260502231517 53 0.0 1.0 0.00 0.01 0.01 48 1014.8
20260502231017 54 0.0 5.0 0.00 0.01 0.01 47 1014.6
20260502230517 54 225 1.0 4.0 0.00 0.01 0.01 46 1014.7
20260502230017 55 225 1.0 5.0 0.00 0.01 0.01 45 1014.8
20260502225517 55 113 1.0 4.0 0.00 0.01 0.01 45 1014.7
20260502225017 55 203 2.0 5.0 0.00 0.01 0.01 44 1014.7
20260502224517 56 225 2.0 7.0 0.00 0.01 0.01 44 1014.6
20260502224017 56 225 1.0 7.0 0.00 0.01 0.01 45 1014.4
20260502223517 56 225 2.0 8.0 0.00 0.01 0.01 45 1014.3
20260502223017 57 135 1.0 5.0 0.00 0.01 0.01 45 1014.2
20260502222517 57 225 1.0 4.0 0.00 0.01 0.01 45 1014.1
20260502222017 57 225 2.0 5.0 0.00 0.01 0.01 45 1014.2
20260502221517 58 113 2.0 4.0 0.00 0.01 0.01 46 1014.1
20260502221017 58 113 1.0 3.0 0.00 0.01 0.01 45 1014.0
20260502220518 58 225 2.0 7.0 0.00 0.01 0.01 45 1013.8
20260502220017 58 203 1.0 9.0 0.00 0.01 0.01 46 1013.9
20260502215517 59 225 1.0 4.0 0.00 0.01 0.01 45 1013.7
20260502215017 59 113 1.0 4.0 0.00 0.02 0.01 46 1013.8
20260502214517 61 135 2.0 7.0 0.00 0.02 0.01 43 1013.6
20260502214017 62 158 2.0 6.0 0.00 0.02 0.01 45 1013.6
20260502213517 63 113 1.0 5.0 0.00 0.02 0.01 44 1013.6
20260502213017 63 90 1.0 4.0 0.00 0.03 0.01 42 1013.5
20260502212517 63 225 2.0 6.0 0.00 0.03 0.01 41 1013.5
20260502212017 63 225 2.0 7.0 0.00 0.03 0.01 43 1013.3
20260502211517 63 0.0 2.0 0.00 0.03 0.01 43 1013.3